Retour au catalogue

STARLINK-37516

ActifCommunicationsSSO
NORAD 68915·PAYLOAD·🇺🇸 United States

Lancé Apr 30, 2026 depuis Vandenberg Space Force Base

Loading…

Prochains Passages (prochaines 24 heures)

TLE

FraisSource: CelesTrak SupGP

Époque: Sep 14, 2026, 22:41 UTC

1 68915C 26097W   26257.94562500  .00085875  00000+0  26659-2 0  2575
2 68915  97.2851  92.2348 0001948  96.6757 315.2873 15.33393023    15

Suivez STARLINK-37516 en temps réel avec AllMySat

Download on the App Store